Location: Breezeway Mobile Manor
(40.8550°N, 80.7956°W)
Time: 18:32:21
(UTC+00:00)

Daily predictions for brighter satellites

Satellite Brightness Start Highest point End
(mag) Time Altitude Azimuth Time Altitude Azimuth Time Altitude Azimuth
STARLINK-1042 4.1 23:34:36 10° WSW 23:38:41 59° NW 23:42:47 10° NE
STARLINK-1056 4.3 23:39:38 10° WSW 23:43:41 55° NW 23:47:46 10° NE
Cosmos 1470 Rocket 4.0 23:43:37 10° SSW 23:47:57 68° W 23:52:22 10° N
STARLINK-1054 4.4 23:44:38 10° WSW 23:48:40 50° NNW 23:52:43 10° NE
Cosmos 2369 Rocket 4.0 23:43:54 10° WSW 23:48:58 33° WNW 23:54:05 10° N
Cosmos 1464 Rocket 4.2 23:43:51 10° SSE 23:49:55 49° E 23:56:02 10° NNE
CZ-2D R/B 3.4 23:47:57 10° SSE 23:51:45 54° ENE 23:55:33 10° N
Okean 1-7 3.5 23:48:31 10° N 23:52:36 39° ENE 23:56:41 10° SSE
STARLINK-1062 4.5 23:49:39 10° WSW 23:53:39 47° NNW 23:57:40 10° NE
Cosmos 1939 Rocket 2.9 23:51:00 10° SSE 23:55:05 64° ENE 23:59:12 10° N
Ariane Rocket 3.8 23:51:12 10° SE 23:55:32 29° ENE 23:59:52 10° N
Hubble Space Telescope 3.4 23:56:31 10° SSW 23:57:50 11° SSW 23:59:09 10° S
